SCF9626 ZUCK-ZSQD

Flight info

Callsign SCF9626
Flight time N/A
Altitude 39100
Route SOSLI5Y SOSLI W4 MUMUN W103 WFG WFG81A
Aircraft B38M/M-SDE1FGHILORVWXY/HB1

Departure

Time N/A
Airport Chongqing Jiangbei International Airport (ZUCK)

Arrival

Time 2026-04-14 03:13
Airport Qingdao Jiaodong International Airport (ZSQD)
Time Latitude Longitude Altitude Speed Heading
2026-04-14 02:23 34.58408 112.89172 37052 ft 527 kts 45°
2026-04-14 02:23 34.60831 112.92434 37049 ft 527 kts 45°
2026-04-14 02:23 34.65739 112.99046 37047 ft 527 kts 45°
2026-04-14 02:24 34.70649 113.05675 37045 ft 528 kts 45°
2026-04-14 02:24 34.75558 113.12316 37046 ft 528 kts 45°
2026-04-14 02:25 34.80461 113.18961 37045 ft 528 kts 45°
2026-04-14 02:25 34.85328 113.25571 37042 ft 528 kts 45°
2026-04-14 02:26 34.90224 113.32232 37041 ft 527 kts 45°
2026-04-14 02:26 34.95112 113.38896 37036 ft 527 kts 45°
2026-04-14 02:27 34.99995 113.45564 37039 ft 527 kts 45°
2026-04-14 02:27 35.04842 113.52197 37035 ft 527 kts 45°
2026-04-14 02:28 35.09715 113.58879 37042 ft 527 kts 45°
2026-04-14 02:28 35.14587 113.65572 37038 ft 527 kts 45°
2026-04-14 02:29 35.19450 113.72265 37033 ft 526 kts 45°
2026-04-14 02:29 35.24272 113.78916 37033 ft 526 kts 45°
2026-04-14 02:30 35.29127 113.85624 37031 ft 526 kts 45°
2026-04-14 02:30 35.33979 113.92343 37035 ft 526 kts 45°
2026-04-14 02:31 35.38824 113.99065 37030 ft 526 kts 45°
2026-04-14 02:31 35.43636 114.05754 37032 ft 526 kts 45°
2026-04-14 02:32 35.48469 114.12486 37031 ft 526 kts 45°
2026-04-14 02:32 35.53301 114.19228 37031 ft 526 kts 45°
2026-04-14 02:33 35.58128 114.25978 37027 ft 526 kts 45°
2026-04-14 02:34 35.65325 114.36066 37026 ft 526 kts 45°
2026-04-14 02:34 35.70140 114.42833 37027 ft 526 kts 45°
2026-04-14 02:35 35.74955 114.49614 37027 ft 526 kts 45°
2026-04-14 02:35 35.79766 114.56400 37031 ft 526 kts 45°
2026-04-14 02:36 35.84538 114.63147 37024 ft 526 kts 45°
2026-04-14 02:36 35.89344 114.69954 37031 ft 526 kts 45°
2026-04-14 02:37 35.94148 114.76773 37029 ft 526 kts 45°
2026-04-14 02:37 35.98945 114.83597 37027 ft 527 kts 45°
2026-04-14 02:38 36.03712 114.90390 37030 ft 527 kts 45°
2026-04-14 02:38 36.08503 114.97232 37032 ft 527 kts 45°
2026-04-14 02:39 36.13297 115.04091 37031 ft 527 kts 45°
2026-04-14 02:39 36.18086 115.10959 37027 ft 527 kts 45°
2026-04-14 02:40 36.22842 115.17791 37026 ft 527 kts 45°
2026-04-14 02:40 36.27623 115.24675 37031 ft 527 kts 45°
2026-04-14 02:41 36.32402 115.31568 37028 ft 527 kts 45°
2026-04-14 02:41 36.37178 115.38473 37024 ft 528 kts 45°
2026-04-14 02:42 36.41951 115.45388 37026 ft 527 kts 45°
2026-04-14 02:42 36.46690 115.52267 37024 ft 527 kts 45°
2026-04-14 02:43 36.51456 115.59199 37024 ft 527 kts 45°
2026-04-14 02:43 36.56218 115.66140 37026 ft 528 kts 44°
2026-04-14 02:44 36.60945 115.73045 37027 ft 528 kts 44°
2026-04-14 02:44 36.65699 115.80004 37024 ft 528 kts 44°
2026-04-14 02:45 36.70452 115.86974 37026 ft 528 kts 44°
2026-04-14 02:45 36.75199 115.93952 37027 ft 528 kts 45°
2026-04-14 02:45 36.77341 115.97692 37003 ft 533 kts 58°
2026-04-14 02:46 36.78865 116.01914 37011 ft 538 kts 73°
2026-04-14 02:46 36.79543 116.06421 37003 ft 536 kts 89°
2026-04-14 02:46 36.79676 116.11066 37015 ft 538 kts 88°
2026-04-14 02:47 36.80046 116.20412 37035 ft 540 kts 89°
2026-04-14 02:47 36.80375 116.29758 37023 ft 540 kts 89°
2026-04-14 02:48 36.80696 116.39116 37020 ft 540 kts 89°
2026-04-14 02:48 36.81008 116.48416 37021 ft 540 kts 89°
2026-04-14 02:49 36.81315 116.57778 37019 ft 540 kts 89°
2026-04-14 02:49 36.81614 116.67149 37025 ft 540 kts 89°
2026-04-14 02:50 36.81907 116.76522 37023 ft 541 kts 89°
2026-04-14 02:50 36.82189 116.85832 37023 ft 541 kts 89°
2026-04-14 02:51 36.82467 116.95213 37025 ft 541 kts 89°
2026-04-14 02:51 36.82738 117.04601 37026 ft 541 kts 89°
2026-04-14 02:52 36.83001 117.13983 37026 ft 541 kts 89°
2026-04-14 02:52 36.83050 117.23296 37018 ft 537 kts 100°
2026-04-14 02:53 36.82174 117.32569 37020 ft 538 kts 99°
2026-04-14 02:53 36.81297 117.41849 37025 ft 539 kts 99°
2026-04-14 02:54 36.80408 117.51141 37027 ft 539 kts 99°
2026-04-14 02:54 36.79518 117.60359 37029 ft 539 kts 99°
2026-04-14 02:55 36.78615 117.69642 37009 ft 539 kts 99°
2026-04-14 02:55 36.77704 117.78927 37027 ft 539 kts 100°
2026-04-14 02:56 36.76787 117.88209 37033 ft 539 kts 100°
2026-04-14 02:56 36.75862 117.97487 37030 ft 539 kts 100°
2026-04-14 02:57 36.74936 118.06706 37026 ft 539 kts 100°
2026-04-14 02:57 36.73997 118.15979 36836 ft 540 kts 100°
2026-04-14 02:57 36.73529 118.20648 35688 ft 549 kts 98°
2026-04-14 02:58 36.73092 118.25378 34797 ft 546 kts 98°
2026-04-14 02:58 36.72658 118.30038 34250 ft 536 kts 98°
2026-04-14 02:58 36.72225 118.34637 33699 ft 532 kts 97°
2026-04-14 02:58 36.71792 118.39217 32895 ft 533 kts 97°
2026-04-14 02:59 36.71360 118.43759 32089 ft 536 kts 97°
2026-04-14 02:59 36.70920 118.48365 31378 ft 535 kts 98°
2026-04-14 02:59 36.70481 118.52957 30819 ft 531 kts 98°
2026-04-14 02:59 36.70043 118.57509 30060 ft 530 kts 98°
2026-04-14 03:00 36.69604 118.62061 29324 ft 526 kts 98°
2026-04-14 03:00 36.69166 118.66571 28353 ft 526 kts 98°
2026-04-14 03:00 36.68723 118.71124 27330 ft 529 kts 98°
2026-04-14 03:00 36.68283 118.75639 26829 ft 520 kts 98°
2026-04-14 03:01 36.67852 118.80028 26153 ft 516 kts 98°
2026-04-14 03:01 36.67415 118.84464 25376 ft 516 kts 98°
2026-04-14 03:01 36.66980 118.88869 24855 ft 509 kts 98°
2026-04-14 03:01 36.66550 118.93204 24385 ft 501 kts 99°
2026-04-14 03:02 36.66122 118.97500 23763 ft 498 kts 99°
2026-04-14 03:02 36.65698 119.01747 23263 ft 490 kts 99°
2026-04-14 03:02 36.65278 119.05936 22573 ft 486 kts 98°
2026-04-14 03:02 36.64862 119.10092 22006 ft 480 kts 98°
2026-04-14 03:03 36.64591 119.14215 21356 ft 477 kts 95°
2026-04-14 03:03 36.64363 119.18257 20809 ft 471 kts 95°
2026-04-14 03:03 36.64121 119.22297 20292 ft 465 kts 95°
2026-04-14 03:03 36.63879 119.26258 19840 ft 451 kts 95°
2026-04-14 03:04 36.63639 119.30153 18749 ft 450 kts 95°
2026-04-14 03:04 36.63399 119.33999 17831 ft 442 kts 95°
2026-04-14 03:04 36.63162 119.37782 17043 ft 438 kts 94°
2026-04-14 03:04 36.62924 119.41564 16271 ft 439 kts 94°
2026-04-14 03:05 36.62684 119.45358 15567 ft 439 kts 94°
2026-04-14 03:05 36.62449 119.49063 15039 ft 433 kts 94°
2026-04-14 03:05 36.62212 119.52777 14513 ft 428 kts 94°
2026-04-14 03:05 36.61977 119.56444 13987 ft 423 kts 94°
2026-04-14 03:06 36.61743 119.60068 13414 ft 418 kts 94°
2026-04-14 03:06 36.61511 119.63653 12829 ft 413 kts 95°
2026-04-14 03:06 36.61281 119.67193 12266 ft 403 kts 95°
2026-04-14 03:06 36.61058 119.70595 11759 ft 386 kts 95°
2026-04-14 03:07 36.60844 119.73857 11103 ft 374 kts 95°
2026-04-14 03:07 36.60634 119.77054 10314 ft 367 kts 95°
2026-04-14 03:07 36.60429 119.80155 9513 ft 361 kts 95°
2026-04-14 03:07 36.60224 119.83246 8684 ft 355 kts 95°
2026-04-14 03:08 36.60029 119.86155 7898 ft 351 kts 95°
2026-04-14 03:08 36.59829 119.89160 7089 ft 346 kts 95°
2026-04-14 03:08 36.59630 119.92131 6298 ft 342 kts 95°
2026-04-14 03:08 36.59406 119.95076 5320 ft 342 kts 100°
2026-04-14 03:09 36.58559 119.97830 4347 ft 343 kts 123°
2026-04-14 03:09 36.56914 119.99777 4139 ft 321 kts 148°
2026-04-14 03:09 36.54933 120.00751 3715 ft 295 kts 169°
2026-04-14 03:09 36.52990 120.01120 3337 ft 270 kts 167°
2026-04-14 03:10 36.51242 120.01645 3090 ft 247 kts 163°
2026-04-14 03:10 36.49653 120.02232 2703 ft 231 kts 161°
2026-04-14 03:10 36.48182 120.02806 2489 ft 214 kts 161°
2026-04-14 03:10 36.46779 120.03353 2115 ft 203 kts 162°
2026-04-14 03:11 36.45509 120.03853 1893 ft 181 kts 161°
2026-04-14 03:11 36.44372 120.04302 1710 ft 163 kts 161°
2026-04-14 03:11 36.43304 120.04727 1362 ft 157 kts 161°
2026-04-14 03:11 36.42276 120.05118 1158 ft 157 kts 162°
2026-04-14 03:12 36.41248 120.05529 931 ft 157 kts 160°
2026-04-14 03:12 36.40205 120.05960 718 ft 158 kts 161°
2026-04-14 03:12 36.39156 120.06379 504 ft 158 kts 162°
2026-04-14 03:12 36.38103 120.06780 282 ft 158 kts 162°
2026-04-14 03:13 36.37056 120.07187 89 ft 157 kts 160°
2026-04-14 03:13 36.36076 120.07594 41 ft 134 kts 163°
2026-04-14 03:13 36.35348 120.07855 38 ft 80 kts 162°
2026-04-14 03:13 36.34978 120.08009 38 ft 34 kts 152°
2026-04-14 03:14 36.34840 120.08150 38 ft 21 kts 136°
2026-04-14 03:14 36.34736 120.08273 39 ft 21 kts 137°
2026-04-14 03:14 36.34653 120.08370 39 ft 8 kts 101°
2026-04-14 03:14 36.34664 120.08437 40 ft 9 kts 75°
2026-04-14 03:15 36.34682 120.08515 40 ft 10 kts 72°
2026-04-14 03:15 36.34707 120.08600 40 ft 11 kts 77°
2026-04-14 03:15 36.34668 120.08662 40 ft 9 kts 179°
2026-04-14 03:15 36.34636 120.08611 40 ft 8 kts 251°
2026-04-14 03:16 36.34623 120.08563 40 ft 0 kts 252°